Time,TemperatureF,DewpointF,PressureIn,WindDirection,WindDirectionDegrees,WindSpeedMPH,WindSpeedGustMPH,Humidity,HourlyPrecipIn,Conditions,Clouds,dailyrainin,SoftwareType,DateUTC
2013-08-31 00:01:00,72.8,71.0,29.91,SSW,196,0.0,2.0,94,0.00,,---,0.00,VWS V14.01,2013-08-31 04:01:00,
2013-08-31 00:06:00,72.7,70.9,29.90,SSW,196,1.0,1.0,94,0.00,,---,0.00,VWS V14.01,2013-08-31 04:06:00,
2013-08-31 00:11:00,72.7,70.9,29.90,SSW,196,0.0,1.0,94,0.00,,---,0.00,VWS V14.01,2013-08-31 04:11:00,
2013-08-31 00:16:00,72.6,70.8,29.90,SSE,163,0.0,1.0,94,0.00,,---,0.00,VWS V14.01,2013-08-31 04:16:00,
2013-08-31 00:21:00,72.6,70.8,29.90,SSW,204,0.0,1.0,94,0.00,,---,0.00,VWS V14.01,2013-08-31 04:21:00,
2013-08-31 00:26:00,72.5,70.7,29.90,SSW,203,0.0,2.0,94,0.00,,---,0.00,VWS V14.01,2013-08-31 04:26:00,
2013-08-31 00:31:00,72.5,70.7,29.90,SSW,203,1.0,1.0,94,0.00,,---,0.00,VWS V14.01,2013-08-31 04:31:00,
2013-08-31 00:36:00,72.4,70.6,29.90,SSW,203,0.0,1.0,94,0.00,,---,0.00,VWS V14.01,2013-08-31 04:36:00,
2013-08-31 00:41:00,72.4,70.6,29.89,SE,146,0.0,1.0,94,0.00,,---,0.00,VWS V14.01,2013-08-31 04:41:00,
2013-08-31 00:46:00,72.4,70.6,29.89,SSW,204,1.0,2.0,94,0.00,,---,0.00,VWS V14.01,2013-08-31 04:46:00,
2013-08-31 00:51:00,72.3,70.5,29.89,SSW,204,0.0,2.0,94,0.00,,---,0.00,VWS V14.01,2013-08-31 04:51:00,
2013-08-31 00:56:00,72.3,70.5,29.89,SSW,204,1.0,2.0,94,0.00,,---,0.00,VWS V14.01,2013-08-31 04:56:00,
2013-08-31 01:01:00,72.2,70.4,29.89,SSW,204,0.0,0.0,94,0.00,,---,0.00,VWS V14.01,2013-08-31 05:01:00,
2013-08-31 01:06:00,72.2,70.4,29.89,SSW,206,0.0,2.0,94,0.00,,---,0.00,VWS V14.01,2013-08-31 05:06:00,
2013-08-31 01:11:00,72.2,70.4,29.89,WSW,250,2.0,2.0,94,0.00,,---,0.00,VWS V14.01,2013-08-31 05:11:00,
2013-08-31 01:16:00,72.2,70.4,29.89,West,264,0.0,2.0,94,0.00,,---,0.00,VWS V14.01,2013-08-31 05:16:00,
2013-08-31 01:21:00,72.1,70.3,29.89,West,264,0.0,2.0,94,0.00,,---,0.00,VWS V14.01,2013-08-31 05:21:00,
2013-08-31 01:26:00,72.1,70.3,29.88,NW,308,0.0,2.0,94,0.00,,---,0.00,VWS V14.01,2013-08-31 05:26:00,
2013-08-31 01:31:00,72.1,70.3,29.88,WSW,252,3.0,3.0,94,0.00,,---,0.00,VWS V14.01,2013-08-31 05:31:00,
2013-08-31 01:36:00,72.0,70.2,29.88,WSW,247,1.0,3.0,94,0.00,,---,0.00,VWS V14.01,2013-08-31 05:36:00,
2013-08-31 01:41:00,72.0,70.2,29.88,West,264,1.0,3.0,94,0.00,,---,0.00,VWS V14.01,2013-08-31 05:41:00,
2013-08-31 01:46:00,72.0,70.5,29.88,West,263,0.0,3.0,95,0.00,,---,0.00,VWS V14.01,2013-08-31 05:46:00,
2013-08-31 01:51:00,71.9,70.4,29.88,West,263,0.0,3.0,95,0.00,,---,0.00,VWS V14.01,2013-08-31 05:51:00,
2013-08-31 01:56:00,71.9,70.4,29.88,West,263,0.0,3.0,95,0.00,,---,0.00,VWS V14.01,2013-08-31 05:56:00,
2013-08-31 02:01:00,71.9,70.4,29.87,West,264,0.0,1.0,95,0.00,,---,0.00,VWS V14.01,2013-08-31 06:01:00,
2013-08-31 02:06:00,71.8,70.3,29.87,West,264,0.0,1.0,95,0.00,,---,0.00,VWS V14.01,2013-08-31 06:06:00,
2013-08-31 02:11:00,71.7,70.2,29.87,West,264,0.0,1.0,95,0.00,,---,0.00,VWS V14.01,2013-08-31 06:11:00,
2013-08-31 02:16:00,71.7,70.2,29.87,WSW,252,0.0,2.0,95,0.00,,---,0.00,VWS V14.01,2013-08-31 06:16:00,
2013-08-31 02:21:00,71.7,70.2,29.87,WSW,253,0.0,4.0,95,0.00,,---,0.00,VWS V14.01,2013-08-31 06:21:00,
2013-08-31 02:26:00,71.6,70.1,29.87,WSW,253,0.0,4.0,95,0.00,,---,0.00,VWS V14.01,2013-08-31 06:26:00,
2013-08-31 02:31:00,71.5,70.0,29.87,WSW,253,0.0,0.0,95,0.00,,---,0.00,VWS V14.01,2013-08-31 06:31:00,
2013-08-31 02:36:00,71.6,70.1,29.87,WSW,253,0.0,2.0,95,0.00,,---,0.00,VWS V14.01,2013-08-31 06:36:00,
2013-08-31 02:41:00,71.5,70.0,29.87,WSW,253,0.0,2.0,95,0.00,,---,0.00,VWS V14.01,2013-08-31 06:41:00,
2013-08-31 02:46:00,71.5,70.0,29.87,WSW,253,0.0,3.0,95,0.00,,---,0.00,VWS V14.01,2013-08-31 06:46:00,
2013-08-31 02:51:00,71.4,69.9,29.87,WSW,253,0.0,3.0,95,0.00,,---,0.00,VWS V14.01,2013-08-31 06:51:00,
2013-08-31 02:56:00,71.4,69.9,29.87,WSW,253,0.0,3.0,95,0.00,,---,0.00,VWS V14.01,2013-08-31 06:56:00,
2013-08-31 03:01:00,71.3,69.8,29.86,WSW,253,0.0,0.0,95,0.00,,---,0.00,VWS V14.01,2013-08-31 07:01:00,
2013-08-31 03:06:00,71.3,69.8,29.86,WSW,253,1.0,2.0,95,0.00,,---,0.00,VWS V14.01,2013-08-31 07:06:00,
2013-08-31 03:11:00,71.3,69.8,29.86,WSW,253,0.0,2.0,95,0.00,,---,0.00,VWS V14.01,2013-08-31 07:11:00,
2013-08-31 03:16:00,71.2,69.7,29.86,WSW,253,0.0,2.0,95,0.00,,---,0.00,VWS V14.01,2013-08-31 07:16:00,
2013-08-31 03:21:00,71.2,69.7,29.87,WSW,253,0.0,2.0,95,0.00,,---,0.00,VWS V14.01,2013-08-31 07:21:00,
2013-08-31 03:26:00,71.2,69.7,29.87,WSW,253,0.0,2.0,95,0.00,,---,0.00,VWS V14.01,2013-08-31 07:26:00,
2013-08-31 03:31:00,71.2,69.7,29.87,WSW,253,0.0,0.0,95,0.00,,---,0.00,VWS V14.01,2013-08-31 07:31:00,
2013-08-31 03:36:00,71.2,69.7,29.87,WSW,253,0.0,2.0,95,0.00,,---,0.00,VWS V14.01,2013-08-31 07:36:00,
2013-08-31 03:41:00,71.2,70.0,29.86,WSW,253,1.0,2.0,96,0.00,,---,0.00,VWS V14.01,2013-08-31 07:41:00,
2013-08-31 03:46:00,71.2,70.0,29.86,WSW,253,0.0,2.0,96,0.00,,---,0.00,VWS V14.01,2013-08-31 07:46:00,
2013-08-31 03:51:00,71.1,69.9,29.86,WSW,253,0.0,2.0,96,0.00,,---,0.00,VWS V14.01,2013-08-31 07:51:00,
2013-08-31 03:56:00,71.1,69.9,29.86,WSW,253,0.0,2.0,96,0.00,,---,0.00,VWS V14.01,2013-08-31 07:56:00,
2013-08-31 04:01:00,71.0,69.8,29.85,WSW,253,0.0,0.0,96,0.00,,---,0.00,VWS V14.01,2013-08-31 08:01:00,
2013-08-31 04:06:00,71.0,69.8,29.86,WSW,253,1.0,2.0,96,0.00,,---,0.00,VWS V14.01,2013-08-31 08:06:00,
2013-08-31 04:11:00,71.0,69.8,29.86,WSW,253,0.0,2.0,96,0.00,,---,0.00,VWS V14.01,2013-08-31 08:11:00,
2013-08-31 04:16:00,71.0,69.8,29.86,WSW,253,1.0,2.0,96,0.00,,---,0.00,VWS V14.01,2013-08-31 08:16:00,
2013-08-31 04:21:00,71.0,69.8,29.86,WSW,253,0.0,2.0,96,0.00,,---,0.00,VWS V14.01,2013-08-31 08:21:00,
2013-08-31 04:26:00,71.1,69.9,29.86,WSW,253,1.0,2.0,96,0.00,,---,0.00,VWS V14.01,2013-08-31 08:26:00,
2013-08-31 04:31:00,71.1,69.9,29.86,WSW,253,0.0,0.0,96,0.00,,---,0.00,VWS V14.01,2013-08-31 08:31:00,
2013-08-31 04:36:00,71.1,69.6,29.85,WSW,253,0.0,2.0,95,0.00,,---,0.00,VWS V14.01,2013-08-31 08:36:00,
2013-08-31 04:41:00,71.1,69.6,29.86,WSW,253,0.0,2.0,95,0.00,,---,0.00,VWS V14.01,2013-08-31 08:41:00,
2013-08-31 04:46:00,71.2,69.7,29.86,WSW,253,1.0,2.0,95,0.00,,---,0.00,VWS V14.01,2013-08-31 08:46:00,
2013-08-31 04:51:00,71.2,69.7,29.86,WSW,253,0.0,2.0,95,0.00,,---,0.00,VWS V14.01,2013-08-31 08:51:00,
2013-08-31 04:56:00,71.2,69.7,29.86,WSW,253,0.0,2.0,95,0.00,,---,0.00,VWS V14.01,2013-08-31 08:56:00,
2013-08-31 05:01:00,71.2,69.7,29.86,WSW,253,0.0,0.0,95,0.00,,---,0.00,VWS V14.01,2013-08-31 09:01:00,
2013-08-31 05:06:00,71.1,69.6,29.86,WSW,253,1.0,1.0,95,0.00,,---,0.00,VWS V14.01,2013-08-31 09:06:00,
2013-08-31 05:11:00,71.1,69.6,29.86,WSW,253,0.0,1.0,95,0.00,,---,0.00,VWS V14.01,2013-08-31 09:11:00,
2013-08-31 05:16:00,71.1,69.6,29.86,WSW,253,0.0,1.0,95,0.00,,---,0.00,VWS V14.01,2013-08-31 09:16:00,
2013-08-31 05:21:00,71.0,69.5,29.86,WSW,253,0.0,1.0,95,0.00,,---,0.00,VWS V14.01,2013-08-31 09:21:00,
2013-08-31 05:26:00,71.0,69.5,29.86,WSW,253,0.0,1.0,95,0.00,,---,0.00,VWS V14.01,2013-08-31 09:26:00,
2013-08-31 05:31:00,71.0,69.5,29.86,WSW,253,0.0,0.0,95,0.00,,---,0.00,VWS V14.01,2013-08-31 09:31:00,
2013-08-31 05:36:00,71.0,69.5,29.86,WSW,253,0.0,1.0,95,0.00,,---,0.00,VWS V14.01,2013-08-31 09:36:00,
2013-08-31 05:41:00,70.9,69.4,29.86,WSW,253,0.0,1.0,95,0.00,,---,0.00,VWS V14.01,2013-08-31 09:41:00,
2013-08-31 05:46:00,70.8,69.3,29.86,WSW,253,0.0,1.0,95,0.00,,---,0.00,VWS V14.01,2013-08-31 09:46:00,
2013-08-31 05:51:00,70.7,69.2,29.86,WSW,253,0.0,1.0,95,0.00,,---,0.00,VWS V14.01,2013-08-31 09:51:00,
2013-08-31 05:56:00,70.6,69.1,29.86,WSW,253,0.0,1.0,95,0.00,,---,0.00,VWS V14.01,2013-08-31 09:56:00,
2013-08-31 06:01:00,70.5,69.0,29.86,WSW,253,0.0,0.0,95,0.00,,---,0.00,VWS V14.01,2013-08-31 10:01:00,
2013-08-31 06:06:00,70.5,69.0,29.86,WSW,253,0.0,0.0,95,0.00,,---,0.00,VWS V14.01,2013-08-31 10:06:00,
2013-08-31 06:11:00,70.4,68.9,29.85,WSW,253,0.0,0.0,95,0.00,,---,0.00,VWS V14.01,2013-08-31 10:11:00,
2013-08-31 06:16:00,70.4,69.2,29.85,WSW,253,0.0,0.0,96,0.00,,---,0.00,VWS V14.01,2013-08-31 10:16:00,
2013-08-31 06:21:00,70.3,69.1,29.85,WSW,253,0.0,0.0,96,0.00,,---,0.00,VWS V14.01,2013-08-31 10:21:00,
2013-08-31 06:26:00,70.3,69.1,29.85,WSW,253,0.0,0.0,96,0.00,,---,0.00,VWS V14.01,2013-08-31 10:26:00,
2013-08-31 06:31:00,70.3,69.1,29.86,WSW,253,0.0,0.0,96,0.00,,---,0.00,VWS V14.01,2013-08-31 10:31:00,
2013-08-31 06:36:00,70.1,68.9,29.86,WSW,253,0.0,0.0,96,0.00,,---,0.00,VWS V14.01,2013-08-31 10:36:00,
2013-08-31 06:41:00,70.1,68.9,29.86,WSW,253,0.0,0.0,96,0.00,,---,0.00,VWS V14.01,2013-08-31 10:41:00,
2013-08-31 06:46:00,70.0,68.8,29.86,WSW,253,0.0,0.0,96,0.00,,---,0.00,VWS V14.01,2013-08-31 10:46:00,
2013-08-31 06:51:00,70.0,68.8,29.86,WSW,253,0.0,0.0,96,0.00,,---,0.00,VWS V14.01,2013-08-31 10:51:00,
2013-08-31 06:56:00,70.0,68.8,29.86,WSW,253,0.0,0.0,96,0.00,,---,0.00,VWS V14.01,2013-08-31 10:56:00,
2013-08-31 07:01:00,70.0,68.8,29.86,WSW,253,0.0,0.0,96,0.00,,---,0.00,VWS V14.01,2013-08-31 11:01:00,
2013-08-31 07:06:00,70.0,68.8,29.86,WSW,253,0.0,0.0,96,0.00,,---,0.00,VWS V14.01,2013-08-31 11:06:00,
2013-08-31 07:11:00,70.1,68.9,29.86,WSW,253,0.0,0.0,96,0.00,,---,0.00,VWS V14.01,2013-08-31 11:11:00,
2013-08-31 07:16:00,70.3,69.1,29.86,WSW,253,0.0,0.0,96,0.00,,---,0.00,VWS V14.01,2013-08-31 11:16:00,
2013-08-31 07:21:00,70.4,69.2,29.86,WSW,253,0.0,1.0,96,0.00,,---,0.00,VWS V14.01,2013-08-31 11:21:00,
2013-08-31 07:26:00,70.6,69.4,29.86,WSW,253,0.0,1.0,96,0.00,,---,0.00,VWS V14.01,2013-08-31 11:26:00,
2013-08-31 07:31:00,70.8,69.6,29.86,WSW,253,0.0,0.0,96,0.00,,---,0.00,VWS V14.01,2013-08-31 11:31:00,
2013-08-31 07:36:00,71.0,69.8,29.86,WSW,253,0.0,1.0,96,0.00,,---,0.00,VWS V14.01,2013-08-31 11:36:00,
2013-08-31 07:41:00,71.3,69.8,29.86,WSW,253,0.0,1.0,95,0.00,,---,0.00,VWS V14.01,2013-08-31 11:41:00,
2013-08-31 07:46:00,71.6,70.1,29.86,WSW,253,0.0,1.0,95,0.00,,---,0.00,VWS V14.01,2013-08-31 11:46:00,
2013-08-31 07:51:00,72.0,70.2,29.86,WSW,253,0.0,1.0,94,0.00,,---,0.00,VWS V14.01,2013-08-31 11:51:00,
2013-08-31 07:56:00,72.3,70.5,29.86,WSW,253,0.0,1.0,94,0.00,,---,0.00,VWS V14.01,2013-08-31 11:56:00,
2013-08-31 08:01:00,72.7,70.6,29.86,ENE,60,1.0,1.0,93,0.00,,---,0.00,VWS V14.01,2013-08-31 12:01:00,
2013-08-31 08:06:00,73.1,70.6,29.86,South,186,0.0,1.0,92,0.00,,---,0.00,VWS V14.01,2013-08-31 12:06:00,
2013-08-31 08:11:00,73.6,70.8,29.86,South,186,0.0,1.0,91,0.00,,---,0.00,VWS V14.01,2013-08-31 12:11:00,
2013-08-31 08:16:00,74.3,71.2,29.86,South,186,0.0,2.0,90,0.00,,---,0.00,VWS V14.01,2013-08-31 12:16:00,
2013-08-31 08:21:00,74.7,71.6,29.86,South,186,0.0,2.0,90,0.00,,---,0.00,VWS V14.01,2013-08-31 12:21:00,
2013-08-31 08:26:00,75.1,71.3,29.86,SW,229,1.0,2.0,88,0.00,,---,0.00,VWS V14.01,2013-08-31 12:26:00,
2013-08-31 08:31:00,75.6,71.5,29.86,West,266,0.0,2.0,87,0.00,,---,0.00,VWS V14.01,2013-08-31 12:31:00,
2013-08-31 08:36:00,76.0,71.2,29.86,West,262,2.0,3.0,85,0.00,,---,0.00,VWS V14.01,2013-08-31 12:36:00,
2013-08-31 08:41:00,76.2,71.4,29.86,WSW,243,0.0,3.0,85,0.00,,---,0.00,VWS V14.01,2013-08-31 12:41:00,
2013-08-31 08:46:00,76.5,71.3,29.86,West,281,0.0,3.0,84,0.00,,---,0.00,VWS V14.01,2013-08-31 12:46:00,
2013-08-31 08:51:00,76.9,71.7,29.86,WSW,252,0.0,3.0,84,0.00,,---,0.00,VWS V14.01,2013-08-31 12:51:00,
2013-08-31 08:56:00,77.3,71.7,29.86,WSW,257,1.0,3.0,83,0.00,,---,0.00,VWS V14.01,2013-08-31 12:56:00,
2013-08-31 09:01:00,77.8,71.9,29.86,WSW,257,0.0,3.0,82,0.00,,---,0.00,VWS V14.01,2013-08-31 13:01:00,
2013-08-31 09:06:00,78.3,72.0,29.87,SW,232,0.0,2.0,81,0.00,,---,0.00,VWS V14.01,2013-08-31 13:06:00,
2013-08-31 09:11:00,78.5,72.2,29.87,West,268,1.0,3.0,81,0.00,,---,0.00,VWS V14.01,2013-08-31 13:11:00,
2013-08-31 09:16:00,79.0,72.3,29.87,West,278,0.0,3.0,80,0.00,,---,0.00,VWS V14.01,2013-08-31 13:16:00,
2013-08-31 09:21:00,78.7,71.6,29.87,SW,230,0.0,4.0,79,0.00,,---,0.00,VWS V14.01,2013-08-31 13:21:00,
2013-08-31 09:26:00,78.8,71.7,29.87,WSW,242,1.0,4.0,79,0.00,,---,0.00,VWS V14.01,2013-08-31 13:26:00,
2013-08-31 09:31:00,79.3,72.2,29.87,WSW,249,0.0,4.0,79,0.00,,---,0.00,VWS V14.01,2013-08-31 13:31:00,
2013-08-31 09:36:00,80.0,72.5,29.87,WSW,255,2.0,2.0,78,0.00,,---,0.00,VWS V14.01,2013-08-31 13:36:00,
2013-08-31 09:41:00,80.2,72.3,29.87,ESE,102,1.0,2.0,77,0.00,,---,0.00,VWS V14.01,2013-08-31 13:41:00,
2013-08-31 09:46:00,80.9,73.0,29.87,West,277,1.0,2.0,77,0.00,,---,0.00,VWS V14.01,2013-08-31 13:46:00,
2013-08-31 09:51:00,81.3,72.6,29.87,West,262,0.0,3.0,75,0.00,,---,0.00,VWS V14.01,2013-08-31 13:51:00,
2013-08-31 09:55:00,81.4,72.7,29.87,WSW,258,0.0,3.0,75,0.00,,---,0.00,VWS V14.01,2013-08-31 13:55:00,
2013-08-31 10:00:00,81.8,73.1,29.87,WSW,249,0.0,3.0,75,0.00,,---,0.00,VWS V14.01,2013-08-31 14:00:00,
2013-08-31 10:05:00,81.8,72.7,29.87,WSW,250,2.0,3.0,74,0.00,,---,0.00,VWS V14.01,2013-08-31 14:05:00,
2013-08-31 10:10:00,81.9,72.8,29.87,WSW,250,1.0,3.0,74,0.00,,---,0.00,VWS V14.01,2013-08-31 14:10:00,
2013-08-31 10:15:00,82.4,73.3,29.87,WSW,250,0.0,3.0,74,0.00,,---,0.00,VWS V14.01,2013-08-31 14:15:00,
2013-08-31 10:20:00,82.9,73.4,29.87,WSW,252,0.0,3.0,73,0.00,,---,0.00,VWS V14.01,2013-08-31 14:20:00,
2013-08-31 10:25:00,82.9,72.9,29.87,WSW,255,1.0,3.0,72,0.00,,---,0.00,VWS V14.01,2013-08-31 14:25:00,
2013-08-31 10:30:00,83.2,73.2,29.87,North,354,0.0,3.0,72,0.00,,---,0.00,VWS V14.01,2013-08-31 14:30:00,
2013-08-31 10:35:00,83.4,73.0,29.87,WNW,285,1.0,2.0,71,0.00,,---,0.00,VWS V14.01,2013-08-31 14:35:00,
2013-08-31 10:40:00,83.6,73.2,29.87,WSW,257,3.0,3.0,71,0.00,,---,0.00,VWS V14.01,2013-08-31 14:40:00,
2013-08-31 10:45:00,83.6,73.6,29.87,WSW,257,1.0,3.0,72,0.00,,---,0.00,VWS V14.01,2013-08-31 14:45:00,
2013-08-31 10:50:00,84.1,73.3,29.87,WSW,257,0.0,3.0,70,0.00,,---,0.00,VWS V14.01,2013-08-31 14:50:00,
2013-08-31 10:55:00,84.0,73.6,29.86,South,172,0.0,3.0,71,0.00,,---,0.00,VWS V14.01,2013-08-31 14:55:00,
2013-08-31 11:00:00,84.4,74.0,29.86,ENE,68,3.0,3.0,71,0.00,,---,0.00,VWS V14.01,2013-08-31 15:00:00,
2013-08-31 11:05:00,84.4,73.6,29.86,SSW,209,0.0,4.0,70,0.00,,---,0.00,VWS V14.01,2013-08-31 15:05:00,
2013-08-31 11:10:00,85.1,74.6,29.86,West,262,0.0,4.0,71,0.00,,---,0.00,VWS V14.01,2013-08-31 15:10:00,
2013-08-31 11:15:00,85.1,74.2,29.86,West,262,0.0,4.0,70,0.00,,---,0.00,VWS V14.01,2013-08-31 15:15:00,
2013-08-31 11:20:00,85.2,73.9,29.86,WSW,242,1.0,4.0,69,0.00,,---,0.00,VWS V14.01,2013-08-31 15:20:00,
2013-08-31 11:25:00,85.3,74.0,29.86,East,88,0.0,4.0,69,0.00,,---,0.00,VWS V14.01,2013-08-31 15:25:00,
2013-08-31 11:30:00,85.2,73.4,29.86,West,269,0.0,4.0,68,0.00,,---,0.00,VWS V14.01,2013-08-31 15:30:00,
2013-08-31 11:35:00,86.0,73.8,29.86,West,260,0.0,3.0,67,0.00,,---,0.00,VWS V14.01,2013-08-31 15:35:00,
2013-08-31 11:40:00,86.6,73.4,29.86,West,272,0.0,3.0,65,0.00,,---,0.00,VWS V14.01,2013-08-31 15:40:00,
2013-08-31 11:45:00,86.4,73.2,29.86,WSW,254,1.0,3.0,65,0.00,,---,0.00,VWS V14.01,2013-08-31 15:45:00,
2013-08-31 11:50:00,86.6,73.9,29.85,West,259,0.0,3.0,66,0.00,,---,0.00,VWS V14.01,2013-08-31 15:50:00,
2013-08-31 11:55:00,86.7,74.9,29.85,West,264,1.0,3.0,68,0.00,,---,0.00,VWS V14.01,2013-08-31 15:55:00,
2013-08-31 12:00:00,87.0,73.8,29.85,WSW,243,0.0,4.0,65,0.00,,---,0.00,VWS V14.01,2013-08-31 16:00:00,
2013-08-31 12:05:00,86.8,74.1,29.85,West,259,1.0,3.0,66,0.00,,---,0.00,VWS V14.01,2013-08-31 16:05:00,
2013-08-31 12:10:00,87.1,73.9,29.85,WSW,257,4.0,4.0,65,0.00,,---,0.00,VWS V14.01,2013-08-31 16:10:00,
2013-08-31 12:15:00,87.0,74.3,29.85,WSW,258,0.0,4.0,66,0.00,,---,0.00,VWS V14.01,2013-08-31 16:15:00,
2013-08-31 12:20:00,87.2,74.5,29.85,WSW,253,1.0,4.0,66,0.00,,---,0.00,VWS V14.01,2013-08-31 16:20:00,
2013-08-31 12:25:00,87.1,73.9,29.84,East,90,1.0,4.0,65,0.00,,---,0.00,VWS V14.01,2013-08-31 16:25:00,
2013-08-31 12:30:00,87.3,74.6,29.84,West,275,0.0,5.0,66,0.00,,---,0.00,VWS V14.01,2013-08-31 16:30:00,
2013-08-31 12:35:00,86.4,73.7,29.84,East,84,0.0,4.0,66,0.00,,---,0.00,VWS V14.01,2013-08-31 16:35:00,
2013-08-31 12:40:00,87.2,74.0,29.84,WSW,255,0.0,4.0,65,0.00,,---,0.00,VWS V14.01,2013-08-31 16:40:00,
2013-08-31 12:45:00,88.1,75.3,29.84,West,259,0.0,4.0,66,0.00,,---,0.00,VWS V14.01,2013-08-31 16:45:00,
2013-08-31 12:50:00,88.0,75.2,29.84,ESE,102,3.0,4.0,66,0.00,,---,0.00,VWS V14.01,2013-08-31 16:50:00,
2013-08-31 12:55:00,88.0,74.3,29.83,East,97,1.0,4.0,64,0.00,,---,0.00,VWS V14.01,2013-08-31 16:55:00,
2013-08-31 13:00:00,87.5,74.8,29.83,SSE,148,1.0,5.0,66,0.00,,---,0.00,VWS V14.01,2013-08-31 17:00:00,
2013-08-31 13:05:00,88.0,75.2,29.83,WSW,251,0.0,4.0,66,0.00,,---,0.00,VWS V14.01,2013-08-31 17:05:00,
2013-08-31 13:10:00,87.9,74.7,29.83,ESE,111,4.0,4.0,65,0.00,,---,0.00,VWS V14.01,2013-08-31 17:10:00,
2013-08-31 13:15:00,87.9,74.7,29.83,ENE,68,3.0,5.0,65,0.00,,---,0.00,VWS V14.01,2013-08-31 17:15:00,
2013-08-31 13:20:00,87.8,74.1,29.83,East,94,3.0,5.0,64,0.00,,---,0.00,VWS V14.01,2013-08-31 17:20:00,
2013-08-31 13:25:00,88.4,75.1,29.83,WSW,255,0.0,5.0,65,0.00,,---,0.00,VWS V14.01,2013-08-31 17:25:00,
2013-08-31 13:30:00,88.9,75.2,29.83,NNE,22,0.0,5.0,64,0.00,,---,0.00,VWS V14.01,2013-08-31 17:30:00,
2013-08-31 13:35:00,89.2,75.0,29.83,East,101,3.0,4.0,63,0.00,,---,0.00,VWS V14.01,2013-08-31 17:35:00,
2013-08-31 13:40:00,89.5,76.2,29.83,NW,304,0.0,4.0,65,0.00,,---,0.00,VWS V14.01,2013-08-31 17:40:00,
2013-08-31 13:45:00,90.7,75.4,29.83,WSW,251,3.0,6.0,61,0.00,,---,0.00,VWS V14.01,2013-08-31 17:45:00,
2013-08-31 13:50:00,90.8,75.0,29.83,WNW,282,1.0,6.0,60,0.00,,---,0.00,VWS V14.01,2013-08-31 17:50:00,
2013-08-31 13:55:00,90.5,75.7,29.83,WSW,244,1.0,6.0,62,0.00,,---,0.00,VWS V14.01,2013-08-31 17:55:00,
2013-08-31 14:00:00,90.8,75.0,29.83,East,80,0.0,6.0,60,0.00,,---,0.00,VWS V14.01,2013-08-31 18:00:00,
2013-08-31 14:05:00,89.7,74.5,29.83,WSW,246,0.0,5.0,61,0.00,,---,0.00,VWS V14.01,2013-08-31 18:05:00,
2013-08-31 14:10:00,89.7,75.0,29.83,East,101,0.0,5.0,62,0.00,,---,0.00,VWS V14.01,2013-08-31 18:10:00,
2013-08-31 14:15:00,89.2,74.5,29.83,East,86,2.0,5.0,62,0.00,,---,0.00,VWS V14.01,2013-08-31 18:15:00,
2013-08-31 14:20:00,88.6,74.4,29.82,East,93,2.0,5.0,63,0.00,,---,0.00,VWS V14.01,2013-08-31 18:20:00,
2013-08-31 14:25:00,88.8,74.6,29.82,East,99,1.0,5.0,63,0.00,,---,0.00,VWS V14.01,2013-08-31 18:25:00,
2013-08-31 14:30:00,89.1,74.4,29.82,West,263,1.0,5.0,62,0.00,,---,0.00,VWS V14.01,2013-08-31 18:30:00,
2013-08-31 14:35:00,88.5,73.8,29.82,SSW,201,1.0,5.0,62,0.00,,---,0.00,VWS V14.01,2013-08-31 18:35:00,
2013-08-31 14:40:00,88.4,74.7,29.81,WSW,252,1.0,5.0,64,0.00,,---,0.00,VWS V14.01,2013-08-31 18:40:00,
2013-08-31 14:45:00,88.2,73.6,29.81,NE,35,1.0,5.0,62,0.00,,---,0.00,VWS V14.01,2013-08-31 18:45:00,
2013-08-31 14:50:00,88.1,73.9,29.81,WSW,252,1.0,5.0,63,0.00,,---,0.00,VWS V14.01,2013-08-31 18:50:00,
2013-08-31 14:55:00,88.6,74.4,29.81,West,261,1.0,5.0,63,0.00,,---,0.00,VWS V14.01,2013-08-31 18:55:00,
2013-08-31 15:00:00,89.6,73.9,29.81,West,276,0.0,6.0,60,0.00,,---,0.00,VWS V14.01,2013-08-31 19:00:00,
2013-08-31 15:05:00,89.5,73.8,29.81,East,83,2.0,5.0,60,0.00,,---,0.00,VWS V14.01,2013-08-31 19:05:00,
2013-08-31 15:10:00,88.8,74.6,29.81,South,187,0.0,5.0,63,0.00,,---,0.00,VWS V14.01,2013-08-31 19:10:00,
2013-08-31 15:15:00,88.8,74.1,29.81,West,272,1.0,5.0,62,0.00,,---,0.00,VWS V14.01,2013-08-31 19:15:00,
2013-08-31 15:20:00,88.3,74.1,29.80,WSW,238,0.0,5.0,63,0.00,,---,0.00,VWS V14.01,2013-08-31 19:20:00,
2013-08-31 15:25:00,88.2,74.5,29.80,East,95,1.0,5.0,64,0.00,,---,0.00,VWS V14.01,2013-08-31 19:25:00,
2013-08-31 15:30:00,88.1,73.9,29.80,SW,235,0.0,5.0,63,0.00,,---,0.00,VWS V14.01,2013-08-31 19:30:00,
2013-08-31 15:35:00,88.2,74.0,29.80,West,262,0.0,4.0,63,0.00,,---,0.00,VWS V14.01,2013-08-31 19:35:00,
2013-08-31 15:40:00,88.3,74.1,29.80,South,187,0.0,4.0,63,0.00,,---,0.00,VWS V14.01,2013-08-31 19:40:00,
2013-08-31 15:45:00,88.8,74.1,29.80,SW,233,1.0,6.0,62,0.00,,---,0.00,VWS V14.01,2013-08-31 19:45:00,
2013-08-31 15:50:00,88.5,74.8,29.80,West,262,1.0,6.0,64,0.00,,---,0.00,VWS V14.01,2013-08-31 19:50:00,
2013-08-31 15:55:00,88.0,74.3,29.80,NW,307,2.0,6.0,64,0.00,,---,0.00,VWS V14.01,2013-08-31 19:55:00,
2013-08-31 16:00:00,87.9,74.7,29.80,WSW,254,0.0,6.0,65,0.00,,---,0.00,VWS V14.01,2013-08-31 20:00:00,
2013-08-31 16:05:00,88.3,74.6,29.80,West,260,0.0,5.0,64,0.00,,---,0.00,VWS V14.01,2013-08-31 20:05:00,
2013-08-31 16:10:00,88.4,74.7,29.80,North,1,0.0,5.0,64,0.00,,---,0.00,VWS V14.01,2013-08-31 20:10:00,
2013-08-31 16:15:00,87.8,74.1,29.79,ESE,115,2.0,5.0,64,0.00,,---,0.00,VWS V14.01,2013-08-31 20:15:00,
2013-08-31 16:20:00,87.5,74.3,29.79,East,87,1.0,5.0,65,0.00,,---,0.00,VWS V14.01,2013-08-31 20:20:00,
2013-08-31 16:25:00,87.9,74.7,29.79,WSW,257,1.0,5.0,65,0.00,,---,0.00,VWS V14.01,2013-08-31 20:25:00,
2013-08-31 16:30:00,88.0,74.8,29.79,WSW,239,1.0,5.0,65,0.00,,---,0.00,VWS V14.01,2013-08-31 20:30:00,
2013-08-31 16:35:00,88.1,74.4,29.79,SW,235,3.0,5.0,64,0.00,,---,0.00,VWS V14.01,2013-08-31 20:35:00,
2013-08-31 16:40:00,87.7,74.5,29.80,West,269,2.0,5.0,65,0.00,,---,0.00,VWS V14.01,2013-08-31 20:40:00,
2013-08-31 16:45:00,87.3,74.6,29.79,WNW,298,0.0,5.0,66,0.00,,---,0.00,VWS V14.01,2013-08-31 20:45:00,
2013-08-31 16:50:00,87.0,74.3,29.79,West,262,0.0,5.0,66,0.00,,---,0.00,VWS V14.01,2013-08-31 20:50:00,
2013-08-31 16:55:00,86.8,74.5,29.79,SSW,207,0.0,5.0,67,0.00,,---,0.00,VWS V14.01,2013-08-31 20:55:00,
2013-08-31 17:00:00,86.7,74.4,29.79,West,263,1.0,5.0,67,0.00,,---,0.00,VWS V14.01,2013-08-31 21:00:00,
2013-08-31 17:05:00,86.6,74.3,29.79,West,278,0.0,2.0,67,0.00,,---,0.00,VWS V14.01,2013-08-31 21:05:00,
2013-08-31 17:10:00,86.8,74.5,29.79,WSW,248,1.0,4.0,67,0.00,,---,0.00,VWS V14.01,2013-08-31 21:10:00,
2013-08-31 17:15:00,86.9,74.6,29.79,WSW,240,0.0,4.0,67,0.00,,---,0.00,VWS V14.01,2013-08-31 21:15:00,
2013-08-31 17:20:00,87.2,74.9,29.79,SSW,209,0.0,4.0,67,0.00,,---,0.00,VWS V14.01,2013-08-31 21:20:00,
2013-08-31 17:25:00,87.2,75.4,29.79,South,178,0.0,4.0,68,0.00,,---,0.00,VWS V14.01,2013-08-31 21:25:00,
2013-08-31 17:30:00,87.2,74.9,29.79,WSW,238,0.0,4.0,67,0.00,,---,0.00,VWS V14.01,2013-08-31 21:30:00,
2013-08-31 17:35:00,87.2,75.4,29.79,WSW,238,0.0,1.0,68,0.00,,---,0.00,VWS V14.01,2013-08-31 21:35:00,
2013-08-31 17:40:00,86.9,75.1,29.79,East,96,1.0,2.0,68,0.00,,---,0.00,VWS V14.01,2013-08-31 21:40:00,
2013-08-31 17:45:00,86.7,75.3,29.79,WSW,258,0.0,5.0,69,0.00,,---,0.00,VWS V14.01,2013-08-31 21:45:00,
2013-08-31 17:50:00,86.3,74.9,29.79,NE,53,0.0,5.0,69,0.00,,---,0.00,VWS V14.01,2013-08-31 21:50:00,
2013-08-31 17:55:00,86.3,75.4,29.79,SW,233,0.0,5.0,70,0.00,,---,0.00,VWS V14.01,2013-08-31 21:55:00,
2013-08-31 18:00:00,85.9,75.4,29.79,West,261,1.0,5.0,71,0.00,,---,0.00,VWS V14.01,2013-08-31 22:00:00,
2013-08-31 18:05:00,85.9,75.4,29.79,South,172,0.0,2.0,71,0.00,,---,0.00,VWS V14.01,2013-08-31 22:05:00,
2013-08-31 18:10:00,86.0,75.5,29.79,SW,218,0.0,2.0,71,0.00,,---,0.00,VWS V14.01,2013-08-31 22:10:00,
2013-08-31 18:15:00,86.8,75.8,29.79,WSW,244,0.0,2.0,70,0.00,,---,0.00,VWS V14.01,2013-08-31 22:15:00,
2013-08-31 18:20:00,86.6,76.1,29.79,ENE,62,0.0,2.0,71,0.00,,---,0.00,VWS V14.01,2013-08-31 22:20:00,
2013-08-31 18:25:00,85.6,75.1,29.78,NNE,30,0.0,2.0,71,0.00,,---,0.00,VWS V14.01,2013-08-31 22:25:00,
2013-08-31 18:30:00,85.0,75.4,29.78,NNE,30,0.0,2.0,73,0.00,,---,0.00,VWS V14.01,2013-08-31 22:30:00,
2013-08-31 18:35:00,85.1,75.5,29.79,WNW,293,0.0,1.0,73,0.00,,---,0.00,VWS V14.01,2013-08-31 22:35:00,
2013-08-31 18:40:00,84.8,75.2,29.79,WNW,293,0.0,1.0,73,0.00,,---,0.00,VWS V14.01,2013-08-31 22:40:00,
2013-08-31 18:45:00,84.6,75.4,29.79,WNW,293,0.0,1.0,74,0.00,,---,0.00,VWS V14.01,2013-08-31 22:45:00,
2013-08-31 18:50:00,84.4,75.2,29.79,WNW,293,0.0,1.0,74,0.00,,---,0.00,VWS V14.01,2013-08-31 22:50:00,
2013-08-31 18:55:00,84.2,75.4,29.79,WNW,293,0.0,1.0,75,0.00,,---,0.00,VWS V14.01,2013-08-31 22:55:00,
2013-08-31 19:00:00,83.9,75.1,29.79,East,85,0.0,1.0,75,0.00,,---,0.00,VWS V14.01,2013-08-31 23:00:00,
2013-08-31 19:05:00,83.8,75.4,29.79,South,172,0.0,1.0,76,0.00,,---,0.00,VWS V14.01,2013-08-31 23:05:00,
2013-08-31 19:10:00,83.6,75.6,29.79,South,172,0.0,1.0,77,0.00,,---,0.00,VWS V14.01,2013-08-31 23:10:00,
2013-08-31 19:15:00,82.9,75.7,29.80,South,172,0.0,1.0,79,0.00,,---,0.00,VWS V14.01,2013-08-31 23:15:00,
2013-08-31 19:20:00,82.5,75.7,29.80,South,172,0.0,1.0,80,0.00,,---,0.00,VWS V14.01,2013-08-31 23:20:00,
2013-08-31 19:24:00,82.4,75.6,29.80,South,172,0.0,1.0,80,0.00,,---,0.00,VWS V14.01,2013-08-31 23:24:00,
2013-08-31 19:29:00,82.3,75.9,29.80,SSW,207,0.0,2.0,81,0.00,,---,0.00,VWS V14.01,2013-08-31 23:29:00,
2013-08-31 19:34:00,82.2,75.8,29.80,SE,146,0.0,0.0,81,0.00,,---,0.00,VWS V14.01,2013-08-31 23:34:00,
2013-08-31 19:39:00,82.1,75.7,29.80,SSE,149,0.0,1.0,81,0.00,,---,0.00,VWS V14.01,2013-08-31 23:39:00,
2013-08-31 19:44:00,82.1,75.7,29.80,SE,141,0.0,1.0,81,0.00,,---,0.00,VWS V14.01,2013-08-31 23:44:00,
2013-08-31 19:49:00,82.0,75.6,29.80,SE,141,0.0,1.0,81,0.00,,---,0.00,VWS V14.01,2013-08-31 23:49:00,
2013-08-31 19:54:00,81.9,75.5,29.80,SE,146,0.0,1.0,81,0.00,,---,0.00,VWS V14.01,2013-08-31 23:54:00,
2013-08-31 19:59:00,81.9,75.5,29.81,SE,146,0.0,1.0,81,0.00,,---,0.00,VWS V14.01,2013-08-31 23:59:00,
2013-08-31 20:04:00,81.7,75.7,29.81,SE,143,1.0,1.0,82,0.00,,---,0.00,VWS V14.01,2013-09-01 00:04:00,
2013-08-31 20:09:00,81.5,75.5,29.81,SSE,153,0.0,1.0,82,0.00,,---,0.00,VWS V14.01,2013-09-01 00:09:00,
2013-08-31 20:14:00,81.4,75.4,29.81,SSE,152,0.0,1.0,82,0.00,,---,0.00,VWS V14.01,2013-09-01 00:14:00,
2013-08-31 20:19:00,81.2,75.6,29.82,SSE,152,0.0,1.0,83,0.00,,---,0.00,VWS V14.01,2013-09-01 00:19:00,
2013-08-31 20:24:00,81.0,75.7,29.82,SE,141,0.0,2.0,84,0.00,,---,0.00,VWS V14.01,2013-09-01 00:24:00,
2013-08-31 20:29:00,80.8,75.5,29.82,SSE,153,0.0,2.0,84,0.00,,---,0.00,VWS V14.01,2013-09-01 00:29:00,
2013-08-31 20:34:00,80.5,75.2,29.82,SSE,156,0.0,1.0,84,0.00,,---,0.00,VWS V14.01,2013-09-01 00:34:00,
2013-08-31 20:39:00,80.3,75.4,29.82,SE,135,0.0,1.0,85,0.00,,---,0.00,VWS V14.01,2013-09-01 00:39:00,
2013-08-31 20:44:00,80.2,75.3,29.82,SE,135,0.0,1.0,85,0.00,,---,0.00,VWS V14.01,2013-09-01 00:44:00,
2013-08-31 20:49:00,80.0,75.1,29.82,SE,136,0.0,1.0,85,0.00,,---,0.00,VWS V14.01,2013-09-01 00:49:00,
2013-08-31 20:54:00,79.9,75.3,29.82,SE,136,0.0,1.0,86,0.00,,---,0.00,VWS V14.01,2013-09-01 00:54:00,
2013-08-31 20:59:00,79.9,75.3,29.82,SE,135,0.0,1.0,86,0.00,,---,0.00,VWS V14.01,2013-09-01 00:59:00,
2013-08-31 21:04:00,79.9,75.0,29.82,SSE,152,0.0,2.0,85,0.00,,---,0.00,VWS V14.01,2013-09-01 01:04:00,
2013-08-31 21:09:00,79.9,75.0,29.82,SSE,159,1.0,2.0,85,0.00,,---,0.00,VWS V14.01,2013-09-01 01:09:00,
2013-08-31 21:14:00,79.9,75.0,29.83,SE,136,0.0,2.0,85,0.00,,---,0.00,VWS V14.01,2013-09-01 01:14:00,
2013-08-31 21:19:00,79.8,74.9,29.83,SE,131,0.0,2.0,85,0.00,,---,0.00,VWS V14.01,2013-09-01 01:19:00,
2013-08-31 21:24:00,79.7,74.8,29.82,SE,134,0.0,2.0,85,0.00,,---,0.00,VWS V14.01,2013-09-01 01:24:00,
2013-08-31 21:29:00,79.6,74.7,29.82,SE,134,0.0,2.0,85,0.00,,---,0.00,VWS V14.01,2013-09-01 01:29:00,
2013-08-31 21:34:00,79.5,74.6,29.82,SSE,166,0.0,1.0,85,0.00,,---,0.00,VWS V14.01,2013-09-01 01:34:00,
2013-08-31 21:39:00,79.4,74.5,29.82,SSE,165,0.0,1.0,85,0.00,,---,0.00,VWS V14.01,2013-09-01 01:39:00,
2013-08-31 21:44:00,79.1,74.6,29.83,SSE,165,0.0,1.0,86,0.00,,---,0.00,VWS V14.01,2013-09-01 01:44:00,
2013-08-31 21:49:00,78.8,74.6,29.83,SSE,165,0.0,1.0,87,0.00,,---,0.00,VWS V14.01,2013-09-01 01:49:00,
2013-08-31 21:54:00,78.6,74.8,29.83,SE,141,0.0,2.0,88,0.00,,---,0.00,VWS V14.01,2013-09-01 01:54:00,
2013-08-31 21:59:00,78.6,74.4,29.83,SE,141,0.0,2.0,87,0.00,,---,0.00,VWS V14.01,2013-09-01 01:59:00,
2013-08-31 22:04:00,78.4,74.6,29.83,SE,141,0.0,0.0,88,0.00,,---,0.00,VWS V14.01,2013-09-01 02:04:00,
2013-08-31 22:09:00,78.2,74.7,29.83,SE,141,0.0,0.0,89,0.00,,---,0.00,VWS V14.01,2013-09-01 02:09:00,
2013-08-31 22:14:00,78.0,74.5,29.83,SE,141,0.0,0.0,89,0.00,,---,0.00,VWS V14.01,2013-09-01 02:14:00,
2013-08-31 22:19:00,78.2,74.4,29.83,SSE,167,1.0,1.0,88,0.00,,---,0.00,VWS V14.01,2013-09-01 02:19:00,
2013-08-31 22:24:00,78.3,74.1,29.83,SSE,166,0.0,1.0,87,0.00,,---,0.00,VWS V14.01,2013-09-01 02:24:00,
2013-08-31 22:29:00,78.4,74.2,29.83,SSE,165,0.0,1.0,87,0.00,,---,0.00,VWS V14.01,2013-09-01 02:29:00,
2013-08-31 22:34:00,78.4,74.2,29.83,SSE,165,0.0,1.0,87,0.00,,---,0.00,VWS V14.01,2013-09-01 02:34:00,
2013-08-31 22:39:00,78.4,73.9,29.83,SSE,167,0.0,2.0,86,0.00,,---,0.00,VWS V14.01,2013-09-01 02:39:00,
2013-08-31 22:44:00,78.4,73.9,29.83,SSE,163,0.0,2.0,86,0.00,,---,0.00,VWS V14.01,2013-09-01 02:44:00,
2013-08-31 22:49:00,78.4,73.9,29.83,ESE,123,0.0,2.0,86,0.00,,---,0.00,VWS V14.01,2013-09-01 02:49:00,
2013-08-31 22:54:00,78.4,73.9,29.83,SE,126,0.0,2.0,86,0.00,,---,0.00,VWS V14.01,2013-09-01 02:54:00,
2013-08-31 22:59:00,78.2,73.7,29.83,SE,126,0.0,2.0,86,0.00,,---,0.00,VWS V14.01,2013-09-01 02:59:00,
2013-08-31 23:04:00,78.1,73.6,29.83,SE,126,0.0,1.0,86,0.00,,---,0.00,VWS V14.01,2013-09-01 03:04:00,
2013-08-31 23:09:00,77.9,73.7,29.83,SE,126,0.0,1.0,87,0.00,,---,0.00,VWS V14.01,2013-09-01 03:09:00,
2013-08-31 23:14:00,77.9,73.7,29.83,South,172,0.0,2.0,87,0.00,,---,0.00,VWS V14.01,2013-09-01 03:14:00,
2013-08-31 23:19:00,77.9,73.7,29.83,SE,132,0.0,2.0,87,0.00,,---,0.00,VWS V14.01,2013-09-01 03:19:00,
2013-08-31 23:24:00,77.8,73.6,29.83,SSE,166,0.0,2.0,87,0.00,,---,0.00,VWS V14.01,2013-09-01 03:24:00,
2013-08-31 23:29:00,77.7,73.5,29.82,SSE,166,1.0,2.0,87,0.00,,---,0.00,VWS V14.01,2013-09-01 03:29:00,
2013-08-31 23:34:00,77.6,73.4,29.82,SSE,161,0.0,1.0,87,0.00,,---,0.00,VWS V14.01,2013-09-01 03:34:00,
2013-08-31 23:39:00,77.4,73.6,29.82,South,169,0.0,2.0,88,0.00,,---,0.00,VWS V14.01,2013-09-01 03:39:00,
2013-08-31 23:44:00,77.3,73.5,29.82,South,169,0.0,2.0,88,0.00,,---,0.00,VWS V14.01,2013-09-01 03:44:00,
2013-08-31 23:49:00,77.0,73.2,29.82,South,169,0.0,2.0,88,0.00,,---,0.00,VWS V14.01,2013-09-01 03:49:00,
2013-08-31 23:54:00,76.8,73.3,29.82,South,169,0.0,2.0,89,0.00,,---,0.00,VWS V14.01,2013-09-01 03:54:00,
2013-08-31 23:59:00,76.7,73.2,29.82,South,169,0.0,2.0,89,0.00,,---,0.00,VWS V14.01,2013-09-01 03:59:00,